When you browse on this site, cookies collect data to enhance your experience and personalize the content and advertising you see.
Visit our Privacy Policy to learn more. By continuing to use the site, you agree to this use of cookies and data.
  • en France
  • Liste des pays
  • À 7 jours
  • Température de l'eau
  • Carte météo
  • Widgets météo
  • user-avatar
    Se connecter

    Météo par heure à Solncevo

    Ce jour, 24 Février, Lundi

    Heure Température Précipitation Vent Pression Humidité
    00:00 -2°C° 0 mm 4 m/s 734 mmHg 88%
    01:00 -3°C° 0 mm 4 m/s 734 mmHg 89%
    02:00 -1°C° 0 mm 3 m/s 733 mmHg 87%
    03:00 -1°C° 0 mm 3 m/s 733 mmHg 87%
    04:00 -2°C° 0 mm 3 m/s 732 mmHg 88%
    05:00 -2°C° 0 mm 3 m/s 732 mmHg 88%
    06:00 -2°C° 0 mm 3 m/s 732 mmHg 88%
    07:00 -1°C° 0 mm 2 m/s 732 mmHg 87%
    08:00 -1°C° 0 mm 2 m/s 732 mmHg 86%
    09:00 +2°C° 0 mm 1 m/s 731 mmHg 83%
    10:00 +2°C° 0 mm 1 m/s 731 mmHg 81%
    11:00 +3°C° 0 mm 1 m/s 731 mmHg 78%
    12:00 +3°C° 0 mm 1 m/s 731 mmHg 78%
    13:00 +2°C° 0 mm 2 m/s 731 mmHg 78%
    14:00 +3°C° 0 mm 2 m/s 730 mmHg 77%
    15:00 +2°C° 0 mm 2 m/s 731 mmHg 80%
    16:00 +1°C° 0 mm 2 m/s 731 mmHg 83%
    17:00 +1°C° 0 mm 2 m/s 731 mmHg 86%
    18:00 0°C° 0 mm 3 m/s 731 mmHg 86%
    19:00 0°C° 0 mm 3 m/s 732 mmHg 85%
    20:00 -1°C° 0 mm 4 m/s 733 mmHg 84%
    21:00 -2°C° 0 mm 4 m/s 733 mmHg 84%
    22:00 -2°C° 0 mm 5 m/s 733 mmHg 84%
    23:00 -2°C° 0 mm 5 m/s 734 mmHg 84%

    Demain, 25 Février, Mardi

    Heure Température Précipitation Vent Pression Humidité
    00:00 -2°C° 0 mm 5 m/s 734 mmHg 82%
    01:00 -3°C° 0 mm 6 m/s 735 mmHg 79%
    02:00 -4°C° 0 mm 6 m/s 735 mmHg 77%
    03:00 -4°C° 0 mm 6 m/s 735 mmHg 77%
    04:00 -4°C° 0 mm 6 m/s 736 mmHg 76%
    05:00 -5°C° 0 mm 6 m/s 736 mmHg 75%
    06:00 -4°C° 0 mm 6 m/s 736 mmHg 75%
    07:00 -4°C° 0 mm 5 m/s 737 mmHg 75%
    08:00 -4°C° 0 mm 5 m/s 737 mmHg 75%
    09:00 -2°C° 0 mm 5 m/s 737 mmHg 70%
    10:00 -2°C° 0 mm 5 m/s 737 mmHg 65%
    11:00 -1°C° 0 mm 5 m/s 737 mmHg 60%
    12:00 0°C° 0 mm 5 m/s 738 mmHg 59%
    13:00 0°C° 0 mm 4 m/s 738 mmHg 57%
    14:00 +1°C° 0 mm 4 m/s 738 mmHg 55%
    15:00 0°C° 0 mm 4 m/s 738 mmHg 61%
    16:00 0°C° 0 mm 3 m/s 737 mmHg 66%
    17:00 -1°C° 0 mm 3 m/s 737 mmHg 71%
    18:00 -1°C° 0 mm 3 m/s 737 mmHg 75%
    19:00 -3°C° 0 mm 4 m/s 737 mmHg 78%
    20:00 -3°C° 0 mm 4 m/s 737 mmHg 81%
    21:00 -3°C° 0 mm 4 m/s 737 mmHg 82%
    22:00 -4°C° 0 mm 5 m/s 736 mmHg 84%
    23:00 -2°C° 0 mm 5 m/s 736 mmHg 86%

    Après-demain, 26 Février, Mercredi

    Heure Température Précipitation Vent Pression Humidité
    00:00 -2°C° 0.1 mm 5 m/s 735 mmHg 89%
    01:00 -3°C° 0.1 mm 6 m/s 735 mmHg 92%
    02:00 -2°C° 0.1 mm 6 m/s 734 mmHg 95%
    03:00 -2°C° 0 mm 6 m/s 734 mmHg 94%
    04:00 -2°C° 0 mm 6 m/s 733 mmHg 94%
    05:00 -2°C° 0 mm 6 m/s 732 mmHg 94%
    06:00 -1°C° 0 mm 6 m/s 732 mmHg 94%
    07:00 -1°C° 0 mm 6 m/s 732 mmHg 94%
    08:00 0°C° 0 mm 5 m/s 732 mmHg 94%
    09:00 -1°C° 0.1 mm 6 m/s 732 mmHg 94%
    10:00 +1°C° 0.1 mm 6 m/s 731 mmHg 94%
    11:00 +1°C° 0.1 mm 6 m/s 731 mmHg 94%
    12:00 +1°C° 0.4 mm 6 m/s 731 mmHg 93%
    13:00 +1°C° 0.4 mm 6 m/s 731 mmHg 93%
    14:00 -1°C° 0.4 mm 6 m/s 731 mmHg 92%
    15:00 -1°C° 0.1 mm 6 m/s 731 mmHg 93%
    16:00 0°C° 0.1 mm 5 m/s 731 mmHg 94%
    17:00 0°C° 0.1 mm 4 m/s 731 mmHg 94%
    18:00 0°C° 0 mm 4 m/s 731 mmHg 95%
    19:00 0°C° 0 mm 4 m/s 731 mmHg 95%
    20:00 +1°C° 0 mm 3 m/s 732 mmHg 96%
    21:00 +1°C° 0.4 mm 3 m/s 731 mmHg 96%
    22:00 +1°C° 0.4 mm 3 m/s 731 mmHg 96%
    23:00 +1°C° 0.4 mm 3 m/s 731 mmHg 96%

    27 Février, Jeudi

    Heure Température Précipitation Vent Pression Humidité
    00:00 +1°C° 0.6 mm 3 m/s 730 mmHg 96%
    01:00 +1°C° 0.6 mm 3 m/s 730 mmHg 96%
    02:00 0°C° 0.6 mm 4 m/s 730 mmHg 96%
    03:00 0°C° 0.4 mm 4 m/s 729 mmHg 96%
    04:00 0°C° 0.4 mm 4 m/s 729 mmHg 96%
    05:00 +1°C° 0.4 mm 5 m/s 729 mmHg 96%
    06:00 +1°C° 0 mm 5 m/s 729 mmHg 96%
    07:00 +1°C° 0 mm 5 m/s 729 mmHg 96%
    08:00 +1°C° 0 mm 5 m/s 729 mmHg 96%
    09:00 +1°C° 1 mm 5 m/s 729 mmHg 96%
    10:00 +1°C° 1 mm 4 m/s 729 mmHg 96%
    11:00 +1°C° 1 mm 4 m/s 729 mmHg 97%
    12:00 +1°C° 1 mm 4 m/s 729 mmHg 97%
    13:00 +2°C° 1 mm 3 m/s 729 mmHg 97%
    14:00 +2°C° 1 mm 3 m/s 729 mmHg 97%
    15:00 +2°C° 0.2 mm 3 m/s 729 mmHg 97%
    16:00 +2°C° 0.2 mm 3 m/s 729 mmHg 97%
    17:00 +2°C° 0.2 mm 3 m/s 730 mmHg 97%
    18:00 +2°C° 0 mm 3 m/s 730 mmHg 97%
    19:00 +3°C° 0 mm 2 m/s 730 mmHg 97%
    20:00 +3°C° 0 mm 2 m/s 731 mmHg 97%
    21:00 +2°C° 0 mm 2 m/s 731 mmHg 96%
    22:00 +2°C° 0 mm 2 m/s 731 mmHg 95%
    23:00 +1°C° 0 mm 2 m/s 731 mmHg 95%

    28 Février, Vendredi

    Heure Température Précipitation Vent Pression Humidité
    00:00 +1°C° 0 mm 2 m/s 730 mmHg 94%
    01:00 +2°C° 0 mm 1 m/s 730 mmHg 94%
    02:00 +1°C° 0 mm 1 m/s 730 mmHg 94%
    03:00 -1°C° 0.1 mm 2 m/s 729 mmHg 94%
    04:00 -1°C° 0.1 mm 2 m/s 729 mmHg 95%
    05:00 -1°C° 0.1 mm 3 m/s 728 mmHg 96%
    06:00 -2°C° 1.4 mm 4 m/s 728 mmHg 96%
    07:00 -2°C° 1.4 mm 5 m/s 728 mmHg 97%
    08:00 -2°C° 1.4 mm 5 m/s 727 mmHg 97%
    09:00 -3°C° 1.1 mm 6 m/s 727 mmHg 97%
    10:00 -3°C° 1.1 mm 6 m/s 727 mmHg 97%
    11:00 -4°C° 1.1 mm 7 m/s 727 mmHg 97%
    12:00 -4°C° 0.9 mm 7 m/s 727 mmHg 95%
    13:00 -5°C° 0.9 mm 8 m/s 727 mmHg 94%
    14:00 -6°C° 0.9 mm 8 m/s 727 mmHg 93%
    15:00 -6°C° 0.1 mm 7 m/s 728 mmHg 90%
    16:00 -5°C° 0.1 mm 6 m/s 729 mmHg 86%
    17:00 -6°C° 0.1 mm 6 m/s 730 mmHg 82%
    18:00 -6°C° 0 mm 6 m/s 730 mmHg 82%
    19:00 -8°C° 0 mm 6 m/s 731 mmHg 82%
    20:00 -9°C° 0 mm 6 m/s 732 mmHg 82%
    21:00 -9°C° 0 mm 6 m/s 732 mmHg 82%
    22:00 -9°C° 0 mm 6 m/s 733 mmHg 82%
    23:00 -9°C° 0 mm 6 m/s 733 mmHg 83%

    29 Février, Samedi

    Heure Température Précipitation Vent Pression Humidité
    00:00 -10°C° 0 mm 6 m/s 733 mmHg 82%
    01:00 -10°C° 0 mm 6 m/s 733 mmHg 81%
    02:00 -10°C° 0 mm 6 m/s 734 mmHg 79%
    03:00 -10°C° 0 mm 6 m/s 734 mmHg 80%
    04:00 -10°C° 0 mm 5 m/s 734 mmHg 80%
    05:00 -10°C° 0 mm 5 m/s 734 mmHg 81%
    06:00 -10°C° 0 mm 5 m/s 734 mmHg 80%
    07:00 -10°C° 0 mm 5 m/s 735 mmHg 80%
    08:00 -10°C° 0 mm 6 m/s 735 mmHg 79%
    09:00 -9°C° 0 mm 6 m/s 735 mmHg 78%
    10:00 -8°C° 0 mm 6 m/s 735 mmHg 76%
    11:00 -8°C° 0 mm 6 m/s 735 mmHg 74%
    12:00 -6°C° 0 mm 6 m/s 735 mmHg 75%
    13:00 -6°C° 0 mm 6 m/s 735 mmHg 75%
    14:00 -6°C° 0 mm 6 m/s 735 mmHg 76%
    15:00 -6°C° 0 mm 5 m/s 736 mmHg 80%
    16:00 -7°C° 0 mm 5 m/s 736 mmHg 85%
    17:00 -7°C° 0 mm 5 m/s 736 mmHg 89%
    18:00 -7°C° 0 mm 4 m/s 737 mmHg 89%
    19:00 -8°C° 0 mm 4 m/s 737 mmHg 89%
    20:00 -8°C° 0 mm 4 m/s 738 mmHg 89%
    21:00 -8°C° 0 mm 4 m/s 738 mmHg 88%
    22:00 -8°C° 0 mm 3 m/s 738 mmHg 88%
    23:00 -8°C° 0 mm 3 m/s 739 mmHg 87%
    Voir plus